This is the latest recevied weather packets stored in our database for station/object K4GSL. If no packets are shown the sender has not sent any weather packets the latest 10 day(s).
| Time | Temp. | Humidity | Pressure | Rain* | Wind** | Luminosity | Snow |
|---|---|---|---|---|---|---|---|
| 1777920831 | 16.11° C | 78% | 1018.1 hPa | 0 mm | - | 258 W/m² | - |
| 1777920527 | 16.11° C | 78% | 1018.2 hPa | 0 mm | - | 248 W/m² | - |
| 1777920223 | 15.56° C | 79% | 1018.1 hPa | 0 mm | - | 258 W/m² | - |
| 1777919919 | 15.56° C | 79% | 1018.3 hPa | 0 mm | - | 262 W/m² | - |
| 1777919616 | 15.56° C | 80% | 1018.2 hPa | 0 mm | - | 247 W/m² | - |
| 1777919314 | 15° C | 81% | 1018.5 hPa | 0 mm | - | 247 W/m² | - |
| 1777919011 | 15° C | 81% | 1018.4 hPa | 0 mm | - | 232 W/m² | - |
| 1777918708 | 15° C | 82% | 1018.3 hPa | 0 mm | - | 206 W/m² | - |
| 1777918405 | 14.44° C | 82% | 1018.6 hPa | 0 mm | - | 176 W/m² | - |
| 1777918104 | 15° C | 82% | 1018.5 hPa | 0 mm | - | 194 W/m² | - |
| 1777917802 | 14.44° C | 83% | 1018.4 hPa | 0 mm | - | 170 W/m² | - |
| 1777917500 | 15° C | 82% | 1018.6 hPa | 0 mm | - | 173 W/m² | - |
| 1777917197 | 15° C | 83% | 1018.3 hPa | 0 mm | - | 161 W/m² | - |
| 1777916895 | 14.44° C | 83% | 1018.5 hPa | 0 mm | - | 160 W/m² | - |
| 1777916592 | 14.44° C | 83% | 1018.7 hPa | 0 mm | - | 154 W/m² | - |
| 1777916289 | 14.44° C | 84% | 1018.4 hPa | 0 mm | - | 149 W/m² | - |
| 1777915985 | 14.44° C | 83% | 1018.7 hPa | 0 mm | - | 142 W/m² | - |
| 1777915683 | 14.44° C | 84% | 1018.6 hPa | 0 mm | - | 136 W/m² | - |
| 1777915379 | 13.89° C | 85% | 1018.6 hPa | 0 mm | - | 137 W/m² | - |
| 1777915075 | 13.89° C | 85% | 1018.5 hPa | 0 mm | - | 133 W/m² | - |
| 1777914772 | 13.89° C | 86% | 1018.4 hPa | 0 mm | - | 124 W/m² | - |
| 1777914469 | 13.89° C | 86% | 1018.5 hPa | 0 mm | - | 116 W/m² | - |
| 1777914166 | 13.89° C | 86% | 1018.7 hPa | 0 mm | - | 115 W/m² | - |
| 1777913862 | 13.89° C | 86% | 1018.5 hPa | 0 mm | - | 117 W/m² | - |
| 1777913559 | 13.89° C | 87% | 1018.4 hPa | 0 mm | - | 109 W/m² | - |
* Rain latest hour (hover to see other rain measurements)
** Current wind speed in m/s (hover to see current wind gust speed)